Satellite-Ground Cal/Val Site Overpasses Predictions

Prediction of Satellite NPP Overpassing Cal/Val Site: Antarctic Dome C

Ground Cal/Val Site Location: Latitude: -75.10, Longitude: 123.35; Satellite-Ground Site NADIR distance within 100 km.

Table of predicted overpasses for the next 14.0 days since TLE Epoch: 9/27/2019
Interval Starting Time Ending Time Minimum Distance Time Minimum Distance (km)
1 09/29/2019 07:31:49 09/29/2019 07:32:19 09/29/2019 07:32:04 2.29
2 10/02/2019 14:55:15 10/02/2019 14:55:44 10/02/2019 14:55:30 18.80
3 10/03/2019 14:36:34 10/03/2019 14:36:48 10/03/2019 14:36:41 88.20
4 10/04/2019 07:38:06 10/04/2019 07:38:33 10/04/2019 07:38:20 38.36
5 10/05/2019 07:19:19 10/05/2019 07:19:39 10/05/2019 07:19:29 71.67
6 10/07/2019 15:01:34 10/07/2019 15:01:58 10/07/2019 15:01:46 56.04
7 10/08/2019 14:42:44 10/08/2019 14:43:09 10/08/2019 14:42:56 53.16
8 10/09/2019 07:44:25 10/09/2019 07:44:44 10/09/2019 07:44:34 73.79


NCC Satellite Cal/Val Overpasses Prediction Service
